Location: Cerroniocc
(13.7547°S, 72.0222°W)
Time: 19:30:39
(UTC+00:00)

GEOS 3 Rocket - Pass Details

Date: 05 July 2020
Orbit: 771 x 848 km, 115.0° (Epoch: 11 August)

Event Time Altitude Azimuth Distance (km) Brightness Sun altitude
Rises 22:58:55 0° 53° (NE) 3,368 6.5 -6.6°
Reaches altitude 10° 23:01:32 10° 64° (ENE) 2,429 5.7 -7.2°
Maximum altitude 23:06:00 29° 122° (ESE) 1,483 4.4 -8.2°
Drops below altitude 10° 23:10:24 10° 180° (S) 2,403 5.9 -9.2°
Sets 23:12:58 0° 191° (S) 3,325 6.7 -9.8°
